{"data":{"norad_id":57974,"epoch":"2026-05-25T00:59:52.315872Z","epoch_age_seconds":64679,"freshness":"FRESH","line1":"1 57974U 23151L   26145.04157773 -.00000688  00000+0 -15447-4 0  9994","line2":"2 57974  43.0042 264.7843 0001809 274.1896  85.8749 15.27593409147442","mean_motion":15.27593409,"eccentricity":0.0001809,"inclination_deg":43.0042,"raan_deg":264.7843,"arg_perigee_deg":274.1896,"mean_anomaly_deg":85.8749,"bstar":-1.5447e-5,"rev_number":14744,"period_min":94.265921253396,"perigee_km":481.76776366205,"apogee_km":484.25012626494,"semimajor_km":6861.1459449635,"source":"CELESTRAK","updated_at":"2026-05-25T13:38:18.486588Z"}}